Terug naar catalogus

STARLINK-3197

ActiefCommunicatieVLEO
NORAD 49757·PAYLOAD·🇺🇸 United States

Gelanceerd Dec 2, 2021 vanaf Cape Canaveral Space Force Station

Loading…

Volgende Passages (komende 24 uur)

TLE

VersSource: CelesTrak SupGP

Epoch: Sep 14, 2026, 19:44 UTC

1 49757C 21115AK  26257.82270833 -.00011496  00000+0 -34879-3 0  2570
2 49757  53.1595 356.4461 0001101  79.7861 263.5157 15.33558582    17

Volg STARLINK-3197 in realtime met AllMySat

Download on the App Store